Hickam AFB, HI

11:59 AM HST on February 23, 2017 (GMT -1000)
Honolulu International

Weather History for PHNL - December, 2014

Change the Weather History Date:

Tuesday, December 16, 2014

  Actual Average Record
Temperature  
Mean Temperature 77 °F 75 °F  
Max Temperature 83 °F 81 °F 88 °F (1995)
Min Temperature 71 °F 68 °F 56 °F (1989)
Degree Days  
Heating Degree Days 0 0  
Month to date heating degree days 0 0  
Since 1 July heating degree days 0 0  
Cooling Degree Days 12 10  
Month to date cooling degree days 157 167  
Year to date cooling degree days 4782 4493  
Growing Degree Days 26 (Base 50)    
Moisture  
Dew Point 64 °F    
Average Humidity 72    
Maximum Humidity 93    
Minimum Humidity 51    
Precipitation  
Precipitation 0.01 in 0.11 in 1.15 in (1968)
Month to date precipitation 0.33 1.51  
Year to date precipitation 20.08 15.37  
Snow  
Snow 0.00 in - - ()
Month to date snowfall 0.0  
Since 1 July snowfall 0.0  
Snow Depth 0.00 in    
Sea Level Pressure  
Sea Level Pressure 30.09 in    
Wind  
Wind Speed 12 mph (ENE)    
Max Wind Speed 22 mph    
Max Gust Speed 29 mph    
Visibility 10 miles    
Events Rain    
T = Trace of Precipitation, MM = Missing Value Source: NWS Daily Summary

Daily Weather History Graph

Daily Weather History Graph

Search for Another Location

Airport or City:

Trip Planner

Search our weather history database for the weather conditions in past years. The results will help you decide how hot, cold, wet, or windy it might be!

Date:

Astronomy

Dec. 16, 2014 Rise Set
Actual Time 7:02 AM HST 5:52 PM HST
Civil Twilight 6:37 AM HST 6:17 PM HST
Nautical Twilight 6:10 AM HST 6:44 PM HST
Astronomical Twilight 5:42 AM HST 7:12 PM HST
Moon 2:01 AM HST (12/16) 1:59 PM HST (12/16)
Length of Visible Light 11h 39m
Length of Day
10h 50m
Waning Crescent, 28% of the Moon is Illuminated
Dec 16
Waning Crescent
Dec 21
New
Dec 28
First Quarter
Jan 4
Full
Jan 12
Last Quarter

Hourly Weather History & Observations

Time (HST) Temp. Heat Index Dew Point Humidity Pressure Visibility Wind Dir Wind Speed Gust Speed Precip Events Conditions
12:53 AM 73.0 °F - 63.0 °F 71% 30.11 in 10.0 mi ENE 12.7 mph 20.7 mph 0.00 in   Mostly Cloudy
1:53 AM 73.0 °F - 62.1 °F 68% 30.09 in 10.0 mi East 13.8 mph 20.7 mph N/A   Mostly Cloudy
2:53 AM 73.0 °F - 63.0 °F 71% 30.08 in 10.0 mi ENE 15.0 mph - 0.00 in   Scattered Clouds
3:53 AM 73.0 °F - 63.0 °F 71% 30.08 in 10.0 mi ENE 13.8 mph - N/A   Mostly Cloudy
4:53 AM 72.0 °F - 64.0 °F 76% 30.08 in 10.0 mi ENE 13.8 mph 21.9 mph N/A   Mostly Cloudy
5:53 AM 72.0 °F - 64.9 °F 78% 30.10 in 7.0 mi ENE 10.4 mph 21.9 mph 0.00 in Rain Light Rain
6:53 AM 72.0 °F - 64.9 °F 78% 30.12 in 10.0 mi ENE 13.8 mph - 0.00 in   Overcast
7:53 AM 73.9 °F - 62.1 °F 66% 30.12 in 10.0 mi ENE 11.5 mph - N/A   Mostly Cloudy
8:53 AM 77.0 °F - 62.1 °F 60% 30.14 in 10.0 mi ENE 19.6 mph 23.0 mph N/A   Mostly Cloudy
9:53 AM 77.0 °F - 61.0 °F 58% 30.14 in 10.0 mi ENE 16.1 mph - N/A   Mostly Cloudy
10:53 AM 80.1 °F 81.1 °F 61.0 °F 52% 30.13 in 10.0 mi ENE 18.4 mph 25.3 mph N/A   Mostly Cloudy
11:53 AM 80.1 °F 81.5 °F 63.0 °F 56% 30.11 in 10.0 mi ENE 12.7 mph - N/A   Mostly Cloudy
12:53 PM 82.0 °F 83.1 °F 63.0 °F 52% 30.07 in 10.0 mi ENE 17.3 mph 23.0 mph N/A   Mostly Cloudy
1:53 PM 78.1 °F - 64.9 °F 64% 30.04 in 10.0 mi NE 13.8 mph 25.3 mph 0.00 in Rain Light Rain
2:53 PM 81.0 °F 82.2 °F 63.0 °F 54% 30.03 in 10.0 mi NE 11.5 mph 21.9 mph 0.00 in   Scattered Clouds
3:53 PM 80.1 °F 81.5 °F 63.0 °F 56% 30.03 in 10.0 mi NE 16.1 mph - N/A   Scattered Clouds
4:53 PM 78.1 °F - 64.9 °F 64% 30.04 in 10.0 mi ENE 12.7 mph 18.4 mph N/A   Scattered Clouds
5:53 PM 75.9 °F - 64.9 °F 69% 30.06 in 10.0 mi ENE 11.5 mph - N/A   Scattered Clouds
6:53 PM 73.9 °F - 66.9 °F 79% 30.09 in 10.0 mi ENE 8.1 mph - 0.00 in Rain Light Rain
7:53 PM 73.9 °F - 66.9 °F 79% 30.11 in 9.0 mi East 9.2 mph - 0.00 in Rain Light Rain
8:53 PM 73.9 °F - 66.9 °F 79% 30.12 in 10.0 mi ENE 5.8 mph - 0.00 in   Mostly Cloudy
9:53 PM 73.9 °F - 66.9 °F 79% 30.13 in 10.0 mi ENE 6.9 mph - 0.00 in   Mostly Cloudy
10:53 PM 72.0 °F - 69.1 °F 91% 30.14 in 10.0 mi NNE 5.8 mph - 0.01 in   Mostly Cloudy
11:53 PM 72.0 °F - 68.0 °F 87% 30.13 in 10.0 mi NNE 6.9 mph - 0.00 in   Mostly Cloudy